Home   Weather   Jyväskylä   Past weeks

Flag for Finland Past Weather in Jyväskylä, Finland — Yesterday and Last 2 Weeks

Now
30 °F

Light snow. Mostly cloudy.


Feels Like: 27 °F
Forecast: 22 / 32 °F
Wind: 3 mph from North

Location: Jyvaskyla Airport

Current Time: Dec 8, 2016 at 2:18:50 am

Latest Report: Dec 8, 2016 at 1:50 am


Visibility: 4 mi

Pressure: 29.53 "Hg

Humidity: 100%

Dew Point: 30 °F

Location of JyväskyläLocation

Past Weather in Jyväskylä — Graph

°F

Jyväskylä Temperature Yesterday

Maximum temperature yesterday: 32 °F (at 9:50 am)
Minimum temperature yesterday: 18 °F (at 12:20 am)
Average temperature yesterday: 29 °F

High & Low Weather Summary for the Past Weeks

 TemperatureHumidityPressure
High41 °F (Nov 23, 7:50 pm)100% (Nov 23, 2:20 am)30.24 "Hg (Nov 23, 2:20 am)
Low-2 °F (Dec 6, 6:20 pm)73% (Dec 5, 4:50 pm)28.94 "Hg (Nov 26, 4:20 pm)
Average25 °F90%29.66 "Hg
* Reported Nov 23 12:20 am — Dec 8 12:50 am, Jyväskylä, Weather by CustomWeather, © 2016

Note: Actual official high and low records may vary slightly from our data, if they occured in-between our weather recording intervals... More about our weather records

Advertising

Jyväskylä Weather History for the Previous 24 Hours

Scroll right to see more
 ConditionsComfort  
Time TempWeatherWind HumidityBarometerVisibility
12:50 am
Thu, Dec 8
32 °FLight snow. Low clouds.3 mph93%29.53 "Hg3 mi
12:20 am32 °FLight mixture of precip. Low clouds.2 mph93%29.56 "HgN/A
11:50 pm
Wed, Dec 7
32 °FOvercast.3 mph93%29.56 "HgN/A
11:20 pm32 °FSnow flurries. Mostly cloudy.2 mph87%29.56 "HgN/A
10:50 pm32 °FLight mixture of precip. Mostly cloudy.3 mph87%29.59 "HgN/A
10:20 pm32 °FScattered showers. Overcast.5 mph87%29.59 "HgN/A
9:50 pm32 °FOvercast.3 mph87%29.59 "HgN/A
9:20 pm32 °FPartly cloudy.5 mph87%29.59 "HgN/A
8:50 pm32 °FPassing clouds.6 mph87%29.62 "HgN/A
8:20 pm32 °FPassing clouds.7 mph87%29.62 "HgN/A
7:50 pm32 °FPassing clouds.8 mph87%29.62 "HgN/A
7:20 pm32 °FPassing clouds.8 mph87%29.65 "HgN/A
6:50 pm32 °FPassing clouds.13 mph87%29.65 "HgN/A
6:20 pm32 °FOvercast.13 mph87%29.65 "HgN/A
5:50 pm32 °FPassing clouds.13 mph87%29.65 "HgN/A
5:20 pm32 °FPassing clouds.14 mph87%29.68 "HgN/A
4:50 pm32 °FPassing clouds.13 mph87%29.68 "HgN/A
4:20 pm32 °FPassing clouds.13 mph87%29.68 "HgN/A
3:50 pm32 °FPassing clouds.10 mph87%29.68 "HgN/A
3:20 pm32 °FPassing clouds.10 mph87%29.68 "HgN/A
2:50 pm32 °FPassing clouds.9 mph87%29.71 "HgN/A
2:20 pm32 °FPassing clouds.9 mph87%29.71 "HgN/A
1:50 pm32 °FScattered clouds.10 mph87%29.71 "HgN/A
1:20 pm32 °FPassing clouds.10 mph87%29.71 "HgN/A
12:50 pm32 °FScattered clouds.12 mph87%29.71 "HgN/A
12:20 pm32 °FPassing clouds.12 mph87%29.74 "HgN/A
11:42 am32 °FScattered clouds.13 mph87%29.74 "HgN/A
10:50 am32 °FScattered clouds.13 mph87%29.77 "HgN/A
10:20 am32 °FScattered clouds.12 mph87%29.77 "HgN/A
9:50 am32 °FScattered clouds.15 mph87%29.77 "HgN/A
9:20 am30 °FPassing clouds.14 mph86%29.77 "HgN/A
8:50 am30 °FPartly cloudy.13 mph86%29.80 "HgN/A
8:20 am30 °FLight snow. Overcast.13 mph86%29.80 "HgN/A
7:50 am30 °FLight snow. Overcast.13 mph86%29.83 "HgN/A
7:20 am30 °FPassing clouds.13 mph86%29.83 "HgN/A
6:50 am30 °FPassing clouds.10 mph86%29.86 "HgN/A
6:20 am28 °FPartly cloudy.12 mph93%29.86 "HgN/A
5:50 am28 °FPartly cloudy.12 mph86%29.89 "HgN/A
5:20 am28 °FPassing clouds.14 mph86%29.89 "HgN/A
4:50 am27 °FMostly cloudy.14 mph93%29.92 "HgN/A
4:20 am27 °FPartly cloudy.14 mph86%29.92 "HgN/A
3:50 am25 °FMostly cloudy.10 mph86%29.92 "HgN/A
3:20 am23 °FLow clouds.9 mph86%29.95 "HgN/A
2:50 am21 °FLow clouds.8 mph86%29.98 "HgN/A
2:20 am19 °FLight mixture of precip. Passing clouds.7 mph93%30.04 "HgN/A
Weather by CustomWeather, © 2016

See weather overviewHow to use our weather pages